Location: Newark
(50.0306°N, 2.3272°E)
Time: 21:28:31
(UTC+00:00)

Transit 2A Rocket - Pass Details

Date: 14 December 2019
Orbit: 593 x 910 km, 66.7° (Epoch: 25 January)

Event Time Altitude Azimuth Distance (km) Brightness Sun altitude
Rises 23:44:45 0° 321° (NW) 2,869 - -63.2°
Reaches altitude 10° 23:46:57 10° 320° (NW) 1,984 - -63.2°
Maximum altitude 23:51:23 71° 237° (WSW) 682 - -63.2°
Drops below altitude 10° 23:56:07 10° 153° (SSE) 2,118 - -63.1°
Sets 23:58:32 0° 152° (SSE) 3,081 - -63.1°
